EN

Hourly Weather Bolshie Hutora

Today, 28 October, Wednesday

Time Temperature Precipitation Wind Pressure Humidity
00:00 +6°C° 0 mm 4 mps 746 mmHg 81%
01:00 +6°C° 0 mm 4 mps 747 mmHg 83%
02:00 +5°C° 0 mm 4 mps 747 mmHg 84%
03:00 +5°C° 0 mm 4 mps 746 mmHg 85%
04:00 +5°C° 0 mm 4 mps 746 mmHg 85%
05:00 +5°C° 0 mm 4 mps 746 mmHg 86%
06:00 +5°C° 0 mm 4 mps 746 mmHg 85%
07:00 +5°C° 0 mm 4 mps 746 mmHg 85%
08:00 +5°C° 0 mm 4 mps 747 mmHg 85%
09:00 +6°C° 0 mm 4 mps 747 mmHg 81%
10:00 +7°C° 0 mm 4 mps 747 mmHg 78%
11:00 +10°C° 0 mm 4 mps 747 mmHg 74%
12:00 +10°C° 0 mm 4 mps 747 mmHg 74%
13:00 +11°C° 0 mm 3 mps 747 mmHg 73%
14:00 +11°C° 0 mm 3 mps 746 mmHg 73%
15:00 +10°C° 0 mm 3 mps 746 mmHg 78%
16:00 +9°C° 0 mm 3 mps 746 mmHg 82%
17:00 +8°C° 0 mm 3 mps 746 mmHg 87%
18:00 +8°C° 0 mm 3 mps 747 mmHg 87%
19:00 +7°C° 0 mm 3 mps 747 mmHg 87%
20:00 +7°C° 0 mm 3 mps 747 mmHg 87%
21:00 +7°C° 0 mm 3 mps 747 mmHg 87%
22:00 +5°C° 0 mm 3 mps 747 mmHg 87%
23:00 +5°C° 0 mm 3 mps 747 mmHg 86%

Tomorrow, 29 October, Thursday

Time Temperature Precipitation Wind Pressure Humidity
00:00 +5°C° 0 mm 3 mps 746 mmHg 87%
01:00 +5°C° 0 mm 3 mps 746 mmHg 88%
02:00 +4°C° 0 mm 3 mps 746 mmHg 88%
03:00 +4°C° 0 mm 3 mps 746 mmHg 90%
04:00 +4°C° 0 mm 3 mps 746 mmHg 91%
05:00 +4°C° 0 mm 3 mps 745 mmHg 92%
06:00 +4°C° 0 mm 3 mps 745 mmHg 91%
07:00 +4°C° 0 mm 3 mps 745 mmHg 90%
08:00 +4°C° 0 mm 4 mps 745 mmHg 89%
09:00 +5°C° 0 mm 4 mps 745 mmHg 85%
10:00 +7°C° 0 mm 4 mps 745 mmHg 81%
11:00 +8°C° 0 mm 4 mps 745 mmHg 76%
12:00 +8°C° 0 mm 4 mps 744 mmHg 76%
13:00 +10°C° 0 mm 3 mps 744 mmHg 76%
14:00 +10°C° 0 mm 3 mps 743 mmHg 75%
15:00 +9°C° 0 mm 3 mps 743 mmHg 80%
16:00 +8°C° 0 mm 3 mps 743 mmHg 86%
17:00 +7°C° 0 mm 2 mps 743 mmHg 91%
18:00 +7°C° 0 mm 2 mps 743 mmHg 92%
19:00 +7°C° 0 mm 2 mps 743 mmHg 93%
20:00 +6°C° 0 mm 2 mps 743 mmHg 94%
21:00 +6°C° 0 mm 2 mps 742 mmHg 94%
22:00 +6°C° 0 mm 2 mps 742 mmHg 94%
23:00 +6°C° 0 mm 2 mps 742 mmHg 95%

Day after tomorrow, 30 October, Friday

Time Temperature Precipitation Wind Pressure Humidity
00:00 +6°C° 0 mm 2 mps 742 mmHg 95%
01:00 +7°C° 0 mm 1 mps 741 mmHg 95%
02:00 +7°C° 0 mm 1 mps 741 mmHg 95%
03:00 +7°C° 0 mm 1 mps 741 mmHg 95%
04:00 +7°C° 0 mm 1 mps 741 mmHg 95%
05:00 +7°C° 0 mm 1 mps 741 mmHg 95%
06:00 +7°C° 0 mm 1 mps 741 mmHg 94%
07:00 +7°C° 0 mm 1 mps 741 mmHg 93%
08:00 +8°C° 0 mm 1 mps 742 mmHg 92%
09:00 +8°C° 0 mm 1 mps 742 mmHg 91%
10:00 +8°C° 0 mm 1 mps 742 mmHg 90%
11:00 +9°C° 0 mm 1 mps 741 mmHg 88%
12:00 +9°C° 0 mm 1 mps 741 mmHg 88%
13:00 +9°C° 0 mm 1 mps 741 mmHg 87%
14:00 +10°C° 0 mm 1 mps 741 mmHg 86%
15:00 +8°C° 0 mm 0 mps 741 mmHg 88%
16:00 +8°C° 0 mm 0 mps 741 mmHg 90%
17:00 +8°C° 0 mm 0 mps 741 mmHg 92%
18:00 +8°C° 0 mm 0 mps 742 mmHg 92%
19:00 +8°C° 0 mm 0 mps 742 mmHg 92%
20:00 +8°C° 0 mm 0 mps 742 mmHg 93%
21:00 +8°C° 0.1 mm 0 mps 742 mmHg 93%
22:00 +9°C° 0.1 mm 1 mps 742 mmHg 94%
23:00 +9°C° 0.1 mm 1 mps 742 mmHg 95%

31 October, Saturday

Time Temperature Precipitation Wind Pressure Humidity
00:00 +9°C° 0.1 mm 1 mps 742 mmHg 95%
01:00 +9°C° 0.1 mm 1 mps 742 mmHg 96%
02:00 +8°C° 0.1 mm 1 mps 742 mmHg 96%
03:00 +8°C° 0.1 mm 2 mps 743 mmHg 96%
04:00 +8°C° 0.1 mm 2 mps 743 mmHg 96%
05:00 +8°C° 0.1 mm 3 mps 743 mmHg 95%
06:00 +7°C° 0 mm 3 mps 744 mmHg 95%
07:00 +7°C° 0 mm 3 mps 744 mmHg 94%
08:00 +7°C° 0 mm 3 mps 744 mmHg 93%
09:00 +7°C° 0 mm 4 mps 745 mmHg 90%
10:00 +8°C° 0 mm 4 mps 746 mmHg 88%
11:00 +8°C° 0 mm 4 mps 746 mmHg 85%
12:00 +8°C° 0 mm 4 mps 746 mmHg 84%
13:00 +8°C° 0 mm 4 mps 747 mmHg 82%
14:00 +8°C° 0 mm 4 mps 747 mmHg 81%
15:00 +8°C° 0 mm 4 mps 747 mmHg 83%
16:00 +8°C° 0 mm 4 mps 748 mmHg 85%
17:00 +7°C° 0 mm 4 mps 748 mmHg 87%
18:00 +7°C° 0 mm 4 mps 749 mmHg 88%
19:00 +6°C° 0 mm 4 mps 749 mmHg 89%
20:00 +6°C° 0 mm 4 mps 750 mmHg 90%
21:00 +5°C° 0 mm 4 mps 750 mmHg 89%
22:00 +5°C° 0 mm 4 mps 750 mmHg 89%
23:00 +5°C° 0 mm 4 mps 750 mmHg 89%

1 November, Sunday

Time Temperature Precipitation Wind Pressure Humidity
00:00 +5°C° 0 mm 3 mps 750 mmHg 87%
01:00 +5°C° 0 mm 3 mps 751 mmHg 85%
02:00 +5°C° 0 mm 3 mps 751 mmHg 83%
03:00 +5°C° 0 mm 3 mps 751 mmHg 80%
04:00 +5°C° 0 mm 3 mps 751 mmHg 78%
05:00 +6°C° 0 mm 2 mps 751 mmHg 75%
06:00 +6°C° 0 mm 2 mps 752 mmHg 75%
07:00 +6°C° 0 mm 2 mps 752 mmHg 75%
08:00 +6°C° 0 mm 2 mps 752 mmHg 75%
09:00 +7°C° 0 mm 2 mps 752 mmHg 71%
10:00 +7°C° 0 mm 2 mps 752 mmHg 67%
11:00 +8°C° 0 mm 3 mps 752 mmHg 63%
12:00 +8°C° 0 mm 2 mps 752 mmHg 61%
13:00 +8°C° 0 mm 2 mps 752 mmHg 59%
14:00 +8°C° 0 mm 2 mps 752 mmHg 58%
15:00 +8°C° 0 mm 1 mps 752 mmHg 61%
16:00 +7°C° 0 mm 1 mps 752 mmHg 65%
17:00 +6°C° 0 mm 1 mps 752 mmHg 68%
18:00 +6°C° 0 mm 1 mps 752 mmHg 69%
19:00 +5°C° 0 mm 1 mps 752 mmHg 71%
20:00 +5°C° 0 mm 1 mps 752 mmHg 73%
21:00 +5°C° 0 mm 1 mps 752 mmHg 74%
22:00 +3°C° 0 mm 0 mps 752 mmHg 75%
23:00 +3°C° 0 mm 0 mps 752 mmHg 76%

2 November, Monday

Time Temperature Precipitation Wind Pressure Humidity
00:00 +3°C° 0 mm 0 mps 752 mmHg 77%
01:00 +2°C° 0 mm 0 mps 752 mmHg 78%
02:00 +2°C° 0 mm 0 mps 752 mmHg 79%
03:00 +2°C° 0 mm 0 mps 752 mmHg 80%
04:00 +2°C° 0 mm 0 mps 752 mmHg 81%
05:00 +2°C° 0 mm 0 mps 752 mmHg 82%
06:00 +2°C° 0 mm 0 mps 752 mmHg 81%
07:00 +3°C° 0 mm 1 mps 752 mmHg 81%
08:00 +3°C° 0 mm 1 mps 752 mmHg 80%
09:00 +4°C° 0 mm 1 mps 752 mmHg 75%
10:00 +5°C° 0 mm 2 mps 752 mmHg 70%
11:00 +6°C° 0 mm 2 mps 753 mmHg 65%
12:00 +6°C° 0 mm 2 mps 752 mmHg 64%
13:00 +7°C° 0 mm 3 mps 752 mmHg 63%
14:00 +7°C° 0 mm 3 mps 752 mmHg 62%
15:00 +5°C° 0 mm 3 mps 752 mmHg 67%
16:00 +4°C° 0 mm 3 mps 752 mmHg 73%
17:00 +4°C° 0 mm 2 mps 752 mmHg 78%
18:00 +3°C° 0 mm 2 mps 752 mmHg 80%
19:00 +3°C° 0 mm 2 mps 752 mmHg 81%
20:00 +3°C° 0 mm 2 mps 752 mmHg 83%
21:00 +3°C° 0 mm 2 mps 752 mmHg 84%
22:00 +2°C° 0 mm 2 mps 752 mmHg 86%
23:00 +1°C° 0 mm 3 mps 752 mmHg 87%
Show more